Volver al catálogo

OPS 9322

IDSCS 9

ActivoMilitarMEO
NORAD 2649·PAYLOAD·🇺🇸 United States

Lanzado Jan 18, 1967 desde Cape Canaveral Space Force Station

Loading…

Próximos Pases (próximas 24 horas)

TLE

ActualizadoSource: Space-Track

Época: Sep 14, 2026, 14:00 UTC

1 02649U 67003B   26257.58333439 -.00000107  00000-0  00000-0 0  9996
2 02649   8.4653  43.6784 0034979 124.5245  76.2004  1.08282176140409

Sigue OPS 9322 en tiempo real con AllMySat

Download on the App Store